This demonstration page uses our WeatherBlox Daily Observations layout. Learn more.

Left ArrowRight Arrow

Hourly Observations for December 17, 2019

Temp ( °F °C ) Dew Point ( °F °C ) Humidity (%) Winds ( mph kmh ) Pressure ( in mb ) Visibility ( mi km ) Precip ( " mm )
12:07 am 00:07 Cloudy with Fog 21 -6 21 -6 100 100 W 6 9 30.34 1028 3 5 0.00 0.00
12:22 am 00:22 Mostly Clear with Mist and Fog N/A N/A N/A Calm N/A 5 8 0.00 0.00
12:52 am 00:52 Cloudy with Mist and Fog 21 -6 21 -6 100 100 Calm 30.33 1027 1 2 0.00 0.00
12:56 am 00:56 Cloudy with Mist and Fog 23 -5 21 -6 93 93 Calm 30.33 1027 1 2 0.00 0.00
1:25 am 01:25 Cloudy with Mist and Fog 21 -6 21 -6 100 100 W 6 9 30.33 1027 1 1 0.00 0.00
1:40 am 01:40 Cloudy with Freezing Fog 21 -6 19 -7 93 93 WSW 3 6 30.33 1027 1 1 0.00 0.00
1:56 am 01:56 Cloudy with Freezing Fog 21 -6 19 -7 93 93 SW 5 7 30.33 1027 1 1 0.00 0.00
2:26 am 02:26 Cloudy with Freezing Fog 19 -7 18 -8 93 93 SW 5 7 30.33 1027 0 0 0.00 0.00
2:31 am 02:31 Cloudy with Fog 19 -7 18 -8 93 93 SW 3 6 30.34 1027 0 0 0.00 0.00
2:41 am 02:41 Cloudy with Mist and Fog 19 -7 18 -8 93 93 WSW 3 6 30.34 1027 5 8 0.00 0.00
2:56 am 02:56 Cloudy with Freezing Fog 19 -7 18 -8 93 93 W 3 6 30.35 1028 1 1 0.00 0.00
3:56 am 03:56 Cloudy with Freezing Fog 18 -8 18 -8 100 100 Calm 30.34 1028 3 5 0.00 0.00
4:21 am 04:21 Cloudy with Mist and Fog 19 -7 18 -8 93 93 WNW 3 6 30.33 1027 1 2 0.00 0.00
4:28 am 04:28 Cloudy with Mist and Fog 19 -7 18 -8 93 93 WNW 3 6 30.33 1027 1 1 0.00 0.00
4:43 am 04:43 Cloudy with Fog 18 -8 16 -9 93 93 WNW 3 6 30.33 1027 3 5 0.00 0.00
4:56 am 04:56 Cloudy with Fog 18 -8 16 -9 93 93 WNW 5 7 30.33 1027 0 0 0.00 0.00
5:11 am 05:11 Cloudy with Freezing Fog 18 -8 16 -9 93 93 WNW 6 9 30.33 1027 1 1 0.00 0.00
5:26 am 05:26 Cloudy with Mist and Fog 18 -8 14 -10 86 86 W 5 7 30.33 1027 5 8 0.00 0.00
5:41 am 05:41 Cloudy with Mist and Fog 16 -9 14 -10 93 93 WNW 5 7 30.33 1027 7 11 0.00 0.00
5:56 am 05:56 Cloudy with Mist and Fog 16 -9 14 -10 93 93 WNW 5 7 30.34 1027 3 5 0.00 0.00
6:56 am 06:56 Partly Cloudy 14 -10 12 -11 92 92 Calm 30.34 1028 10 16 0.00 0.00
7:56 am 07:56 Sunny 14 -10 10 -12 85 85 Calm 30.35 1028 10 16 0.00 0.00
8:56 am 08:56 Sunny 18 -8 14 -10 86 86 Calm 30.35 1028 10 16 0.00 0.00
9:56 am 09:56 Sunny 23 -5 16 -9 74 74 Calm 30.35 1028 10 16 0.00 0.00
10:56 am 10:56 Sunny 27 -3 18 -8 69 69 W 6 9 30.34 1027 10 16 0.00 0.00
11:56 am 11:56 Sunny 30 -1 19 -7 64 64 W 8 13 30.31 1026 10 16 0.00 0.00
12:56 pm 12:56 Partly Cloudy 34 1 19 -7 56 56 W 9 15 30.28 1025 10 16 0.00 0.00
1:56 pm 13:56 Sunny 36 2 21 -6 56 56 WSW 7 11 30.25 1025 10 16 0.00 0.00
2:56 pm 14:56 Sunny 37 3 23 -5 56 56 WSW 8 13 30.24 1024 10 16 0.00 0.00
3:56 pm 15:56 Mostly Sunny 37 3 23 -5 56 56 WSW 6 9 30.25 1024 10 16 0.00 0.00
4:56 pm 16:56 Sunny 36 2 23 -5 60 60 WSW 6 9 30.25 1024 10 16 0.00 0.00
5:56 pm 17:56 Clear 32 0 23 -5 69 69 W 7 11 30.28 1025 10 16 0.00 0.00
6:56 pm 18:56 Clear 30 -1 23 -5 75 75 W 6 9 30.29 1026 10 16 0.00 0.00
7:56 pm 19:56 Clear 28 -2 23 -5 80 80 WNW 7 11 30.30 1026 10 16 0.00 0.00
8:56 pm 20:56 Clear 28 -2 21 -6 74 74 NW 7 11 30.32 1027 10 16 0.00 0.00
9:56 pm 21:56 Clear 27 -3 19 -7 74 74 WNW 7 11 30.32 1027 10 16 0.00 0.00
10:56 pm 22:56 Clear 25 -4 18 -8 74 74 WNW 3 6 30.33 1027 10 16 0.00 0.00
11:56 pm 23:56 Clear 25 -4 18 -8 74 74 WNW 5 7 30.33 1027 10 16 0.00 0.00

Powered by AerisWeather